Regional Weather Roundup
Issued by NWS Jackson, KY

Home | Current Version | Previous Version | Text Only | Print | Product List | Glossary On
Versions: 1 2 3 4 5 6 7 8 9 10 11 12 13 14 15 16 17 18 19 20 21 22 23 24 25 26 27 28 29 30 31 32 33 34 35 36 37 38 39 40 41 42 43 44 45 46 47 48 49 50
000
ASUS43 KJKL 280605
RWRJKL

EAST KENTUCKY HOURLY WEATHER ROUNDUP
NATIONAL WEATHER SERVICE JACKSON KY
100 AM EST SUN DEC 28 2014

NOTE: "FAIR" INDICATES FEW OR NO CLOUDS BELOW 12,000 FEET WITH
NO SIGNIFICANT WEATHER AND/OR OBSTRUCTIONS TO VISIBILITY.

* THESE REPORTS ARE NOT UNDER NWS QUALITY CONTROL AND MAY NOT
  REPORT WEATHER SUCH AS PRECIPITATION AND FOG.

KYZ079-080-083-085-087-088-110-112-115-119-120-280700
...EASTERN KENTUCKY...

CITY           SKY/WX    TMP DP  RH WIND       PRES   REMARKS
JACKSON        CLOUDY    49  39  68 W13G23    30.07F
6HR MIN TEMP:  48; 6HR MAX TEMP:  57; 6HR PCP:  0.01;

LONDON         LGT RAIN  47  42  83 CALM      30.08F
6HR MIN TEMP:  47; 6HR MAX TEMP:  51; 6HR PCP:  0.10;

SOMERSET*      DRIZZLE   45  45 100 CALM      30.11S
MONTICELLO*    FOG       48  47  97 CALM      30.10F VSB 1
6HR MIN TEMP:  48; 6HR MAX TEMP:  50; 6HR PCP:  0.03;

MIDDLESBORO*   DRIZZLE   46  44  93 E6        30.09F
6HR MIN TEMP:  46; 6HR MAX TEMP:  53; 6HR PCP:  0.31;

HARLAN APT*    CLOUDY    45  45 100 CALM      30.08F
BLACK MTN*       N/A     41  34  75 S10         N/A
PIKEVILLE APT* CLOUDY    48  41  76 NW3       30.06F
BIG SANDY*     CLOUDY    49  41  73 NW6       30.07S
6HR MIN TEMP:  48; 6HR MAX TEMP:  59;

MOREHEAD APT*  CLOUDY    50  45  81 SW13      30.08S
$$

KYZ035-036-041-042-044-050-067-078-099-280700
...CENTRAL KENTUCKY...

CITY           SKY/WX    TMP DP  RH WIND       PRES   REMARKS
MT STERLING*   CLOUDY    46  45  93 W9        30.07F FOG
FLEMING/MASON* DRIZZLE   45  45  99 SW5       30.07S
DANVILLE*      DRIZZLE   46  45  93 SW8       30.09F
RICHMOND*      CLOUDY    48  45  87 SW9       30.07F
LEXINGTON      CLOUDY    47  46  97 SW10      30.07S FOG
6HR MIN TEMP:  46; 6HR MAX TEMP:  47; 6HR PCP:  0.04;

FRANKFORT      CLOUDY    47  45  93 W7        30.07R FOG
6HR MIN TEMP:  46; 6HR MAX TEMP:  47; 6HR PCP:  0.01;

$$

KYZ091>093-OHZ055-061-077-WVZ005-015-034-035-042-280700
...SOUTHERN OHIO/WEST VIRGINIA...

CITY           SKY/WX    TMP DP  RH WIND       PRES   REMARKS
COVINGTON      LGT RAIN  47  43  86 W5        30.04F
COLUMBUS       LGT RAIN  46  45  93 W8        30.01F
DAYTON         RAIN      41  40  96 NW7       30.03F FOG
WILMINGTON     LGT RAIN  46  44  93 W6        30.02F FOG
HUNTINGTON     CLOUDY    52  42  69 SW12      30.04F
CHARLESTON     CLOUDY    53  38  56 SW7       30.04F
PINEVILLE*     CLOUDY    48  46  91 MISG      30.10S
BECKLEY        CLOUDY    51  24  34 SW3       30.05F
BLUEFIELD      PTCLDY    57  23  26 VRB5      30.06F
$$

VAZ002-007-008-TNZ017-027-036-066-071-280700
...SOUTHWEST VIRGINIA/EAST TENNESSEE...

CITY           SKY/WX    TMP DP  RH WIND       PRES   REMARKS
WISE*          CLOUDY    50  28  43 SW9       30.08S
JONESVILLE*    LGT RAIN  46  46 100 CALM      30.13F
ABINGDON*      CLOUDY    48  40  74 CALM      30.08F
BRISTOL        CLOUDY    45  41  86 SW5       30.10F
KNOXVILLE      LGT RAIN  48  43  82 CALM      30.10F
OAK RIDGE      CLOUDY    48  46  93 CALM      30.11F
CROSSVILLE     CLOUDY    51  47  86 VRB3      30.08F
NASHVILLE      LGT RAIN  50  49  96 CALM      30.10S FOG
$$

...KEY TO REMARKS...
VSB - VISIBILITY IN MILES
WCI - WIND CHILL INDEX
HX  - HEAT INDEX

$$


USA.gov is the U.S. government's official web portal to all federal, state and local government web resources and services.